SYRACUSE 4A

Last updated on Wed Nov 20 2024 00:02:43 GMT+0000 (Coordinated Universal Time)

1 49333U 21095B 24323.94979985 .00000137 00000+0 00000+0 0 9992 2 49333 0.0123 329.9726 0001277 276.1134 199.8452 1.00269924 12193
UTC large
Height (km)
Speed (km/s)
/
Latitude / Longitude
Inclination (degrees)
Orbital Period (minutes)
Azimuth
Elevation
Range (km)
Doppler Factor

Next 0 passes for location: London (51.5072 / 0.1276)

Sorry there are no passes over London.